Martinsville, VA

10:29 AM EDT on April 25, 2017 (GMT -0400)
Blue Ridge

Weather History for KMTV - November, 2013

Change the Weather History Date:

Sunday, November 10, 2013

  Actual Average (KINT) Record (KINT)
Temperature  
Mean Temperature 49 °F -  
Max Temperature 70 °F 58 °F 80 °F (2006)
Min Temperature 29 °F 40 °F 20 °F (1973)
Degree Days  
Heating Degree Days 16    
Moisture  
Dew Point 28 °F    
Average Humidity 50    
Maximum Humidity 94    
Minimum Humidity 16    
Precipitation  
Precipitation 0.00 in - - ()
Sea Level Pressure  
Sea Level Pressure 30.19 in    
Wind  
Wind Speed 4 mph (WNW)    
Max Wind Speed 12 mph    
Max Gust Speed 22 mph    
Visibility 10 miles    
Events      
Averages and records for this station are not official NWS values.
T = Trace of Precipitation, MM = Missing Value Source: NWS Daily Summary

Daily Weather History Graph

Daily Weather History Graph

Search for Another Location

Airport or City:

Trip Planner

Search our weather history database for the weather conditions in past years. The results will help you decide how hot, cold, wet, or windy it might be!

Date:

Astronomy

Nov. 10, 2013 Rise Set
Actual Time 6:52 AM EST 5:14 PM EST
Civil Twilight 6:25 AM EST 5:41 PM EST
Nautical Twilight 5:54 AM EST 6:12 PM EST
Astronomical Twilight 5:24 AM EST 6:43 PM EST
Moon 1:08 PM EST (11/10) No Moon Set
Length of Visible Light 11h 16m
Length of Day
10h 21m
First Quarter, 55% of the Moon is Illuminated
Nov 10
First Quarter
Nov 17
Full
Nov 25
Last Quarter
Dec 2
New
Dec 9
First Quarter

Hourly Weather History & Observations

Time (EST) Temp. Windchill Dew Point Humidity Pressure Visibility Wind Dir Wind Speed Gust Speed Precip Events Conditions
12:15 AM 33.4 °F - 29.1 °F 84% 30.20 in 10.0 mi Calm Calm - N/A   Clear
12:35 AM 32.0 °F 28.7 °F 29.1 °F 89% 30.19 in 10.0 mi SW 3.5 mph - N/A   Clear
12:55 AM 35.6 °F 31.7 °F 30.2 °F 81% 30.19 in 10.0 mi SW 4.6 mph - N/A   Clear
1:15 AM 37.6 °F 35.1 °F 30.9 °F 77% 30.18 in 10.0 mi SW 3.5 mph - N/A   Clear
1:35 AM 32.5 °F 29.3 °F 28.8 °F 86% 30.18 in 10.0 mi WSW 3.5 mph - N/A   Clear
1:55 AM 39.6 °F 36.3 °F 29.7 °F 68% 30.17 in 10.0 mi WSW 4.6 mph - N/A   Clear
2:15 AM 42.6 °F - 29.1 °F 59% 30.17 in 10.0 mi Calm Calm - N/A   Clear
2:35 AM 34.3 °F - 29.3 °F 82% 30.17 in 10.0 mi Calm Calm - N/A   Clear
2:55 AM 33.1 °F - 29.1 °F 85% 30.18 in 10.0 mi Calm Calm - N/A   Clear
3:15 AM 32.2 °F - 28.9 °F 88% 30.18 in 10.0 mi Calm Calm - N/A   Clear
3:35 AM 33.1 °F 30.0 °F 29.1 °F 85% 30.18 in 10.0 mi ESE 3.5 mph - N/A   Clear
3:55 AM 32.0 °F - 29.1 °F 89% 30.18 in 10.0 mi Calm Calm - N/A   Clear
4:15 AM 33.6 °F - 29.3 °F 84% 30.18 in 10.0 mi Calm Calm - N/A   Clear
4:35 AM 33.1 °F - 28.8 °F 84% 30.18 in 10.0 mi Calm Calm - N/A   Clear
4:55 AM 32.0 °F - 28.8 °F 88% 30.18 in 10.0 mi Calm Calm - N/A   Clear
5:15 AM 32.0 °F - 28.9 °F 88% 30.18 in 10.0 mi Calm Calm - N/A   Clear
5:35 AM 30.7 °F - 28.4 °F 91% 30.19 in 10.0 mi Calm Calm - N/A   Clear
5:55 AM 30.2 °F - 28.4 °F 93% 30.19 in 10.0 mi Calm Calm - N/A   Clear
6:15 AM 30.4 °F - 28.4 °F 92% 30.19 in 10.0 mi Calm Calm - N/A   Clear
6:35 AM 29.7 °F - 28.0 °F 94% 30.19 in 10.0 mi Calm Calm - N/A   Clear
6:55 AM 30.4 °F - 28.4 °F 92% 30.20 in 10.0 mi Calm Calm - N/A   Clear
7:15 AM 30.9 °F - 28.9 °F 92% 30.20 in 10.0 mi Calm Calm - N/A   Clear
7:35 AM 32.5 °F 28.1 °F 30.0 °F 90% 30.20 in 10.0 mi West 4.6 mph - N/A   Clear
7:55 AM 46.6 °F - 32.9 °F 59% 30.20 in 10.0 mi WSW 4.6 mph - N/A   Clear
8:15 AM 50.9 °F - 33.3 °F 51% 30.21 in 10.0 mi WSW 5.8 mph - N/A   Clear
8:35 AM 53.2 °F - 34.0 °F 48% 30.21 in 10.0 mi WSW 4.6 mph - N/A   Clear
8:55 AM 54.7 °F - 34.3 °F 46% 30.20 in 10.0 mi West 3.5 mph - N/A   Clear
9:15 AM 56.3 °F - 34.5 °F 44% 30.20 in 10.0 mi WSW 5.8 mph - N/A   Clear
9:35 AM 57.6 °F - 35.6 °F 44% 30.20 in 10.0 mi WSW 5.8 mph - N/A   Clear
9:55 AM 58.8 °F - 35.8 °F 42% 30.19 in 10.0 mi SSW 6.9 mph - N/A   Clear
10:15 AM 60.8 °F - 36.5 °F 40% 30.19 in 10.0 mi SW 8.1 mph - N/A   Clear
10:35 AM 62.6 °F - 36.3 °F 38% 30.18 in 10.0 mi SW 6.9 mph - N/A   Clear
10:55 AM 62.8 °F - 35.8 °F 37% 30.17 in 10.0 mi WSW 8.1 mph - N/A   Clear
11:15 AM 64.4 °F - 36.0 °F 35% 30.17 in 10.0 mi SSW 5.8 mph - N/A   Clear
11:35 AM 66.2 °F - 33.1 °F 29% 30.16 in 10.0 mi West 6.9 mph - N/A   Clear
11:55 AM 67.8 °F - 31.8 °F 26% 30.15 in 10.0 mi West 10.4 mph 19.6 mph N/A   Clear
12:15 PM 68.0 °F - 30.2 °F 24% 30.14 in 10.0 mi West 8.1 mph 17.3 mph N/A   Clear
12:35 PM 68.0 °F - 29.3 °F 24% 30.13 in 10.0 mi West 9.2 mph 20.7 mph N/A   Clear
12:55 PM 69.4 °F - 29.8 °F 23% 30.11 in 10.0 mi West 5.8 mph - N/A   Clear
1:15 PM 69.4 °F - 29.1 °F 22% 30.11 in 10.0 mi West 9.2 mph 19.6 mph N/A   Clear
1:35 PM 69.1 °F - 28.6 °F 22% 30.11 in 10.0 mi West 10.4 mph 20.7 mph N/A   Clear
1:55 PM 69.8 °F - 28.9 °F 22% 30.11 in 10.0 mi West 8.1 mph 21.9 mph N/A   Clear
2:15 PM 69.8 °F - 29.3 °F 22% 30.10 in 10.0 mi West 8.1 mph - N/A   Clear
2:35 PM 69.4 °F - 27.7 °F 21% 30.10 in 10.0 mi WNW 9.2 mph 17.3 mph N/A   Clear
2:55 PM 68.9 °F - 28.0 °F 22% 30.10 in 10.0 mi West 10.4 mph 16.1 mph N/A   Clear
3:15 PM 68.9 °F - 27.9 °F 22% 30.10 in 10.0 mi West 9.2 mph 16.1 mph N/A   Clear
3:35 PM 68.5 °F - 27.0 °F 21% 30.11 in 10.0 mi Calm Calm - N/A   Clear
3:55 PM 68.0 °F - 26.2 °F 21% 30.11 in 10.0 mi NW 5.8 mph - N/A   Clear
4:15 PM 66.9 °F - 20.1 °F 17% 30.12 in 10.0 mi NW 9.2 mph 21.9 mph N/A   Clear
4:35 PM 66.0 °F - 18.9 °F 16% 30.13 in 10.0 mi NW 8.1 mph 17.3 mph N/A   Clear
4:55 PM 63.5 °F - 18.9 °F 18% 30.13 in 10.0 mi NW 4.6 mph - N/A   Clear
5:15 PM 59.9 °F - 21.4 °F 23% 30.15 in 10.0 mi NW 4.6 mph - N/A   Clear
5:35 PM 56.1 °F - 21.4 °F 26% 30.15 in 10.0 mi NNW 5.8 mph - N/A   Clear
5:55 PM 55.9 °F - 19.9 °F 25% 30.17 in 10.0 mi NW 3.5 mph - N/A   Clear
6:15 PM 53.8 °F - 20.5 °F 27% 30.18 in 10.0 mi NW 4.6 mph - N/A   Clear
6:35 PM 50.2 °F - 22.3 °F 34% 30.19 in 10.0 mi NNW 5.8 mph - N/A   Clear
6:55 PM 52.5 °F - 22.6 °F 31% 30.20 in 10.0 mi NNW 9.2 mph - N/A   Clear
7:15 PM 56.5 °F - 22.1 °F 26% 30.21 in 10.0 mi NNW 8.1 mph - N/A   Clear
7:35 PM 55.4 °F - 21.7 °F 27% 30.22 in 10.0 mi NW 11.5 mph 17.3 mph N/A   Clear
7:55 PM 54.7 °F - 21.9 °F 28% 30.23 in 10.0 mi NW 9.2 mph - N/A   Clear
8:15 PM 53.8 °F - 22.6 °F 30% 30.25 in 10.0 mi NNW 8.1 mph - N/A   Clear
8:35 PM 52.0 °F - 23.9 °F 34% 30.26 in 10.0 mi NNW 9.2 mph - N/A   Clear
8:55 PM 51.3 °F - 25.2 °F 36% 30.26 in 10.0 mi North 6.9 mph - N/A   Clear
9:15 PM 50.7 °F - 25.9 °F 38% 30.27 in 10.0 mi NNW 8.1 mph - N/A   Clear
9:35 PM 49.5 °F - 27.1 °F 42% 30.28 in 10.0 mi North 6.9 mph - N/A   Clear
9:55 PM 47.8 °F - 28.0 °F 46% 30.28 in 10.0 mi North 4.6 mph - N/A   Clear
10:15 PM 45.9 °F 44.6 °F 27.9 °F 49% 30.29 in 10.0 mi North 3.5 mph - N/A   Clear
10:35 PM 46.9 °F - 27.9 °F 48% 30.29 in 10.0 mi North 8.1 mph - N/A   Clear
10:55 PM 47.1 °F - 27.0 °F 46% 30.30 in 10.0 mi NNW 4.6 mph - N/A   Clear
11:15 PM 46.6 °F - 26.2 °F 45% 30.30 in 10.0 mi NNW 9.2 mph - N/A   Clear
11:35 PM 45.0 °F 42.6 °F 25.7 °F 47% 30.30 in 10.0 mi NNW 4.6 mph - N/A   Clear
11:55 PM 44.6 °F 39.7 °F 25.5 °F 47% 30.30 in 10.0 mi NNW 9.2 mph - N/A   Clear